sat.trackr.live / text

‹ back to catalog

STARLINK-34341

NORAD 64161 · 2025-112R

PAYLOAD ACTIVE UNKNOWN

§ Identity

Operator
Country
US
Launch date
2025-05-27
Launch site
AFWTR
Launch vehicle
Mass (kg)
RCS (m²)

Purposes: comms

External: N2YO · Heavens-Above · Gunter

§ Orbital elements

Epoch: 2026-09-20T22:46:05.679840Z

Period
93.91 min
Inclination
97.2812°
Eccentricity
0.0003068
Mean motion
15.33406125 rev/d
Perigee alt
463.6 km
Apogee alt
467.8 km
Semi-major
6,843.8 km
B*
4.9272e-4
RAAN
310.9645°
Arg perigee
95.8365°
Mean anomaly
264.3227°
Rev number
7,281

§ Raw data

STARLINK-343411 64161U 25112R   26263.94867685  .00015847  00000+0  49272-3 0  99922 64161  97.2812 310.9645 0003068  95.8365 264.3227 15.33406125 72814

JSON: /api/v1/satellites/64161 · /tle

For live sub-satellite position, see the globe view (requires WebGL).

§ Visibility from observer

Set your observer location to see the next 7 days of passes ≥ 10°. The values pass through the URL so the page stays shareable.

No JS? Fill the form by hand. The geolocation button needs JavaScript.